sat.trackr.live / text

‹ back to catalog

STARLINK-31311

NORAD 58948 · 2024-027T

PAYLOAD ACTIVE UNKNOWN

§ Identity

Operator
Country
US
Launch date
2024-02-10
Launch site
AFWTR
Launch vehicle
Mass (kg)
RCS (m²)

Purposes: comms

External: N2YO · Heavens-Above · Gunter

§ Orbital elements

Epoch: 2026-09-20T21:33:34.928352Z

Period
93.85 min
Inclination
53.1605°
Eccentricity
0.0001427
Mean motion
15.34396906 rev/d
Perigee alt
461.7 km
Apogee alt
463.7 km
Semi-major
6,840.8 km
B*
3.5285e-5
RAAN
119.4966°
Arg perigee
82.4646°
Mean anomaly
277.6518°
Rev number
14,726

§ Raw data

STARLINK-313111 58948U 24027T   26263.89832093  .00000816  00000+0  35285-4 0  99912 58948  53.1605 119.4966 0001427  82.4646 277.6518 15.34396906147268

JSON: /api/v1/satellites/58948 · /tle

For live sub-satellite position, see the globe view (requires WebGL).

§ Visibility from observer

Set your observer location to see the next 7 days of passes ≥ 10°. The values pass through the URL so the page stays shareable.

No JS? Fill the form by hand. The geolocation button needs JavaScript.